Zurück zum Katalog

STARLINK-31896

AktivKommunikationVLEO
NORAD 59851·PAYLOAD·🇺🇸 United States

Gestartet May 23, 2024 von Cape Canaveral Space Force Station

Loading…

Nächste Überflüge (nächste 24 Stunden)

TLE

AktuellSource: CelesTrak SupGP

Epoche: Sep 14, 2026, 14:03 UTC

1 59851C 24097S   26257.58590278  .00049281  00000+0  17855-2 0  2574
2 59851  43.0000 287.5623 0001510 279.9887 172.4385 15.27543354    17

Verfolge STARLINK-31896 in Echtzeit mit AllMySat

Download on the App Store